Oxford, NC

5:23 AM EST on December 06, 2016 (GMT -0500)
Henderson-Oxford

Weather History for KHNZ - February, 2013

Change the Weather History Date:

Wednesday, February 27, 2013

  Actual Average (KTDF) Record (KTDF)
Temperature  
Mean Temperature 48 °F -  
Max Temperature 58 °F 52 °F 81 °F (1977)
Min Temperature 40 °F 28 °F 6 °F (1963)
Degree Days  
Heating Degree Days 16    
Moisture  
Dew Point 37 °F    
Average Humidity 70    
Maximum Humidity 96    
Minimum Humidity 37    
Precipitation  
Precipitation 0.00 in - - ()
Sea Level Pressure  
Sea Level Pressure 29.69 in    
Wind  
Wind Speed 7 mph (WSW)    
Max Wind Speed 12 mph    
Max Gust Speed 18 mph    
Visibility 10 miles    
Events      
Averages and records for this station are not official NWS values.
T = Trace of Precipitation, MM = Missing Value Source: NWS Daily Summary

Daily Weather History Graph

Daily Weather History Graph

Search for Another Location

Airport or City:

Trip Planner

Search our weather history database for the weather conditions in past years. The results will help you decide how hot, cold, wet, or windy it might be!

Date:

Astronomy

Feb. 27, 2013 Rise Set
Actual Time 6:46 AM EST 6:07 PM EST
Civil Twilight 6:21 AM EST 6:33 PM EST
Nautical Twilight 5:51 AM EST 7:02 PM EST
Astronomical Twilight 5:21 AM EST 7:32 PM EST
Moon 8:20 PM EST (2/27) 7:25 AM EST (2/27)
Length of Visible Light 12h 12m
Length of Day
11h 20m
Waning Gibbous, 96% of the Moon is Illuminated
Feb 27
Waning Gibbous
Mar 4
Last Quarter
Mar 11
New
Mar 19
First Quarter
Mar 27
Full

Hourly Weather History & Observations

Time (EST) Temp. Windchill Dew Point Humidity Pressure Visibility Wind Dir Wind Speed Gust Speed Precip Events Conditions
12:15 AM 45.9 °F 42.3 °F 44.8 °F 96% 29.61 in 10.0 mi WSW 6.9 mph - N/A   Scattered Clouds
12:35 AM 45.0 °F 41.8 °F 43.9 °F 96% 29.61 in 10.0 mi WSW 5.8 mph - N/A   Scattered Clouds
12:55 AM 44.1 °F 42.5 °F 43.0 °F 96% 29.61 in 10.0 mi WSW 3.5 mph - N/A   Mostly Cloudy
1:15 AM 43.7 °F 39.7 °F 42.3 °F 95% 29.61 in 10.0 mi SW 6.9 mph - N/A   Overcast
1:35 AM 43.0 °F 40.3 °F 41.7 °F 95% 29.61 in 10.0 mi WSW 4.6 mph - N/A   Overcast
1:55 AM 42.4 °F 37.5 °F 41.2 °F 95% 29.61 in 10.0 mi West 8.1 mph - N/A   Overcast
2:15 AM 42.4 °F 39.6 °F 41.2 °F 95% 29.62 in 5.0 mi West 4.6 mph - N/A   Overcast
2:35 AM 42.4 °F 37.5 °F 41.2 °F 95% 29.62 in 5.0 mi WSW 8.1 mph - N/A   Overcast
2:55 AM 41.9 °F 36.9 °F 40.6 °F 95% 29.62 in 10.0 mi WSW 8.1 mph - N/A   Overcast
3:15 AM 41.9 °F 37.5 °F 40.5 °F 95% 29.61 in 10.0 mi WSW 6.9 mph - N/A   Overcast
3:35 AM 41.9 °F 38.2 °F 40.5 °F 95% 29.61 in 10.0 mi WSW 5.8 mph - N/A   Overcast
3:55 AM 41.9 °F 37.5 °F 40.5 °F 95% 29.61 in 10.0 mi SW 6.9 mph - N/A   Overcast
4:15 AM 41.7 °F 36.7 °F 40.1 °F 94% 29.62 in 10.0 mi WSW 8.1 mph - N/A   Overcast
4:35 AM 41.7 °F 35.6 °F 40.3 °F 95% 29.64 in 10.0 mi WSW 10.4 mph 16.1 mph N/A   Overcast
4:55 AM 41.9 °F 36.9 °F 40.1 °F 93% 29.63 in 7.0 mi SW 8.1 mph 18.4 mph N/A   Overcast
5:15 AM 41.9 °F 36.9 °F 40.1 °F 93% 29.64 in 7.0 mi WSW 8.1 mph - N/A   Overcast
5:35 AM 41.9 °F 36.9 °F 40.1 °F 93% 29.64 in 10.0 mi WSW 8.1 mph 16.1 mph N/A   Overcast
5:55 AM 41.7 °F 36.1 °F 39.7 °F 93% 29.65 in 10.0 mi WSW 9.2 mph - N/A   Overcast
6:15 AM 41.5 °F 35.0 °F 39.2 °F 91% 29.66 in 10.0 mi SW 11.5 mph 18.4 mph N/A   Overcast
6:35 AM 41.0 °F 35.2 °F 38.7 °F 91% 29.67 in 10.0 mi WSW 9.2 mph - N/A   Overcast
6:55 AM 41.0 °F 35.8 °F 38.7 °F 91% 29.68 in 10.0 mi WSW 8.1 mph - N/A   Overcast
7:15 AM 40.5 °F 35.8 °F 38.3 °F 92% 29.69 in 10.0 mi WSW 6.9 mph - N/A   Mostly Cloudy
7:35 AM 41.0 °F 36.4 °F 38.7 °F 91% 29.70 in 10.0 mi SW 6.9 mph - N/A   Mostly Cloudy
7:55 AM 41.9 °F 37.5 °F 39.2 °F 90% 29.71 in 10.0 mi SW 6.9 mph - N/A   Mostly Cloudy
8:15 AM 42.8 °F 38.0 °F 39.4 °F 88% 29.72 in 10.0 mi SW 8.1 mph - N/A   Scattered Clouds
8:35 AM 43.7 °F 39.7 °F 39.4 °F 85% 29.73 in 10.0 mi WSW 6.9 mph - N/A   Clear
8:55 AM 45.0 °F 40.1 °F 39.6 °F 81% 29.74 in 10.0 mi WSW 9.2 mph - N/A   Clear
9:15 AM 45.9 °F 41.7 °F 39.2 °F 78% 29.75 in 10.0 mi WSW 8.1 mph - N/A   Clear
9:35 AM 46.8 °F - 39.0 °F 74% 29.75 in 10.0 mi WSW 8.1 mph - N/A   Clear
9:55 AM 48.0 °F - 39.6 °F 73% 29.75 in 10.0 mi SW 10.4 mph - N/A   Clear
10:15 AM 49.3 °F - 37.8 °F 65% 29.75 in 10.0 mi WSW 11.5 mph 18.4 mph N/A   Clear
10:35 AM 50.0 °F - 36.5 °F 60% 29.75 in 10.0 mi West 10.4 mph - N/A   Clear
10:55 AM 50.7 °F - 35.1 °F 55% 29.75 in 10.0 mi West 10.4 mph 17.3 mph N/A   Clear
11:15 AM 52.0 °F - 34.9 °F 52% 29.76 in 10.0 mi West 6.9 mph - N/A   Clear
11:35 AM 52.5 °F - 34.0 °F 49% 29.76 in 10.0 mi West 6.9 mph 16.1 mph N/A   Clear
11:55 AM 53.6 °F - 34.9 °F 49% 29.76 in 10.0 mi WSW 11.5 mph - N/A   Scattered Clouds
12:15 PM 53.8 °F - 34.2 °F 47% 29.75 in 10.0 mi West 9.2 mph - N/A   Scattered Clouds
12:35 PM 54.3 °F - 33.1 °F 45% 29.74 in 10.0 mi West 8.1 mph - N/A   Clear
12:55 PM 55.0 °F - 33.6 °F 44% 29.74 in 10.0 mi SW 10.4 mph 17.3 mph N/A   Clear
1:15 PM 55.4 °F - 33.3 °F 43% 29.73 in 10.0 mi WSW 10.4 mph - N/A   Clear
1:55 PM 56.5 °F - 32.0 °F 39% 29.71 in 10.0 mi WSW 9.2 mph - N/A   Clear
2:15 PM 56.8 °F - 31.8 °F 39% 29.71 in 10.0 mi West 9.2 mph - N/A   Clear
2:35 PM 56.7 °F - 30.9 °F 38% 29.72 in 10.0 mi WSW 9.2 mph 17.3 mph N/A   Clear
2:55 PM 57.4 °F - 31.8 °F 38% 29.71 in 10.0 mi SW 9.2 mph 16.1 mph N/A   Clear
3:15 PM 57.2 °F - 31.3 °F 37% 29.71 in 10.0 mi WSW 5.8 mph - N/A   Clear
3:35 PM 57.9 °F - 32.4 °F 38% 29.71 in 10.0 mi West 10.4 mph - N/A   Clear
3:55 PM 57.6 °F - 31.8 °F 38% 29.70 in 10.0 mi SW 9.2 mph - N/A   Clear
4:15 PM 57.4 °F - 31.1 °F 37% 29.70 in 10.0 mi West 9.2 mph - N/A   Clear
4:35 PM 57.2 °F - 31.1 °F 37% 29.70 in 10.0 mi WSW 6.9 mph - N/A   Clear
5:15 PM 56.1 °F - 31.8 °F 40% 29.71 in 10.0 mi SW 8.1 mph - N/A   Clear
5:35 PM 55.4 °F - 32.0 °F 41% 29.71 in 10.0 mi SW 6.9 mph - N/A   Clear
5:55 PM 53.6 °F - 32.9 °F 45% 29.71 in 10.0 mi WSW 4.6 mph - N/A   Clear
6:15 PM 52.9 °F - 32.9 °F 47% 29.72 in 10.0 mi SW 3.5 mph - N/A   Clear
6:35 PM 50.9 °F - 34.2 °F 53% 29.71 in 10.0 mi South 3.5 mph - N/A   Clear
6:55 PM 50.7 °F - 34.0 °F 53% 29.72 in 10.0 mi SW 4.6 mph - N/A   Clear
7:15 PM 46.0 °F 44.8 °F 36.3 °F 69% 29.72 in 10.0 mi SSW 3.5 mph - N/A   Clear
7:35 PM 49.5 °F - 35.1 °F 58% 29.72 in 10.0 mi WSW 5.8 mph - N/A   Clear
7:55 PM 46.6 °F - 35.8 °F 66% 29.71 in 10.0 mi SSW 6.9 mph - N/A   Clear
8:15 PM 45.9 °F 42.9 °F 35.6 °F 67% 29.71 in 10.0 mi SSW 5.8 mph - N/A   Clear
8:35 PM 45.9 °F 42.3 °F 36.1 °F 69% 29.71 in 10.0 mi SSW 6.9 mph - N/A   Clear
8:55 PM 45.9 °F 42.3 °F 36.5 °F 70% 29.71 in 10.0 mi SSW 6.9 mph - N/A   Clear
9:15 PM 45.3 °F 42.3 °F 36.5 °F 71% 29.71 in 10.0 mi SW 5.8 mph - N/A   Clear
9:35 PM 45.0 °F 42.6 °F 36.1 °F 71% 29.72 in 10.0 mi SW 4.6 mph - N/A   Clear
9:55 PM 44.6 °F 41.4 °F 36.0 °F 72% 29.71 in 10.0 mi SW 5.8 mph - N/A   Clear
10:15 PM 44.6 °F 40.2 °F 36.7 °F 74% 29.72 in 10.0 mi SW 8.1 mph - N/A   Clear
10:35 PM 46.2 °F 42.7 °F 36.7 °F 69% 29.71 in 10.0 mi SW 6.9 mph - N/A   Clear
11:15 PM 46.6 °F - 36.5 °F 68% 29.70 in 10.0 mi SW 6.9 mph - N/A   Scattered Clouds
11:35 PM 47.5 °F - 36.5 °F 66% 29.70 in 10.0 mi West 5.8 mph - N/A   Overcast
11:55 PM 47.3 °F - 35.8 °F 64% 29.71 in 10.0 mi NW 6.9 mph - N/A   Overcast